STARLINK-31988 (60601 NORAD) Tracking and Keplerian Element Data

This shows tracking and keplerian element data for the satellite.

Feedback or suggestion? Click here.




ElementValue
Catalog60601
NameSTARLINK-31988
Epoch Orbit940
Epoch Day286.66707743
Epoch Year2024
RAAN170.7934
Inclination53.1611
Eccentricity5.77E-05
Argument of Perigee95.5806
Mean Anonmoly264.5265
Mean Motion15.39632104
Decay Rate0.00038292
L11 60601U 24150U 24286.66707743 .00038292 00000+0 96210-3 0 9991
L22 60601 53.1611 170.7934 0000577 95.5806 264.5265 15.39632104 9402



Live tracking and technical data element details for STARLINK-31988 (NORAD 60601). STARLINK-31988 can be tracked NOW for your location showing map with azimuth and elevation plus other details from your city location.







IsCatalogInMostPopularTable: catalog: 60601, numindb: 9
Update: records affected: 1



GetName: 60601 STARLINK-31988

Hit Count: updated at: Wed, 04 Dec 2024 19:23:38 GMT